UGD444 HKJK-HUEN

Flight info

Callsign UGD444
Flight time N/A
Altitude 25000
Route ANTUK2D APKUB UQ293 IMPOG IMPOG1A
Aircraft A321/M-V/N

Departure

Time N/A
Airport Jomo Kenyatta International Airport (HKJK)

Arrival

Time 2026-05-07 16:32
Airport Entebbe International Airport (HUEN)
Time Latitude Longitude Altitude Speed Heading
2026-05-07 14:20 -1.32838 36.92484 0 ft 0 kts 175°
2026-05-07 14:42 -1.32837 36.92484 0 ft 0 kts 175°
2026-05-07 14:42 -1.32835 36.92484 0 ft 0 kts 175°
2026-05-07 14:42 -1.32833 36.92484 0 ft 0 kts 175°
2026-05-07 14:43 -1.32827 36.92484 0 ft 3 kts 175°
2026-05-07 14:43 -1.32813 36.92482 0 ft 3 kts 175°
2026-05-07 14:43 -1.32803 36.92482 0 ft 3 kts 175°
2026-05-07 14:43 -1.32791 36.92481 0 ft 3 kts 181°
2026-05-07 14:44 -1.32782 36.92482 0 ft 3 kts 202°
2026-05-07 14:44 -1.32770 36.92492 0 ft 3 kts 238°
2026-05-07 14:44 -1.32766 36.92501 0 ft 0 kts 261°
2026-05-07 14:48 -1.32766 36.92499 0 ft 1 kts 261°
2026-05-07 14:48 -1.32767 36.92492 0 ft 2 kts 261°
2026-05-07 14:48 -1.32769 36.92480 0 ft 3 kts 261°
2026-05-07 14:49 -1.32772 36.92463 0 ft 4 kts 261°
2026-05-07 14:49 -1.32771 36.92441 0 ft 5 kts 283°
2026-05-07 14:49 -1.32761 36.92418 0 ft 6 kts 301°
2026-05-07 14:49 -1.32741 36.92392 0 ft 7 kts 314°
2026-05-07 14:50 -1.32711 36.92367 0 ft 9 kts 322°
2026-05-07 14:50 -1.32689 36.92332 0 ft 9 kts 274°
2026-05-07 14:50 -1.32702 36.92289 0 ft 10 kts 244°
2026-05-07 14:50 -1.32723 36.92246 0 ft 11 kts 244°
2026-05-07 14:51 -1.32751 36.92202 0 ft 11 kts 233°
2026-05-07 14:51 -1.32784 36.92158 0 ft 12 kts 232°
2026-05-07 14:51 -1.32806 36.92129 0 ft 12 kts 232°
2026-05-07 14:51 -1.32854 36.92065 0 ft 13 kts 236°
2026-05-07 14:52 -1.32887 36.92017 0 ft 13 kts 235°
2026-05-07 14:52 -1.32926 36.91962 0 ft 12 kts 234°
2026-05-07 14:52 -1.32959 36.91918 0 ft 9 kts 233°
2026-05-07 14:52 -1.32977 36.91893 0 ft 9 kts 233°
2026-05-07 14:53 -1.32997 36.91854 0 ft 9 kts 259°
2026-05-07 14:53 -1.32988 36.91814 0 ft 10 kts 303°
2026-05-07 14:53 -1.32939 36.91777 0 ft 11 kts 326°
2026-05-07 14:53 -1.32896 36.91746 0 ft 12 kts 324°
2026-05-07 14:54 -1.32866 36.91725 0 ft 13 kts 324°
2026-05-07 14:54 -1.32817 36.91690 0 ft 13 kts 328°
2026-05-07 14:54 -1.32772 36.91671 0 ft 8 kts 354°
2026-05-07 14:54 -1.32736 36.91681 0 ft 10 kts 32°
2026-05-07 14:55 -1.32700 36.91719 0 ft 11 kts 55°
2026-05-07 14:55 -1.32685 36.91740 0 ft 0 kts 53°
2026-05-07 14:56 -1.32675 36.91753 0 ft 14 kts 52°
2026-05-07 14:56 -1.32571 36.91888 0 ft 58 kts 55°
2026-05-07 14:56 -1.32378 36.92153 0 ft 96 kts 53°
2026-05-07 14:56 -1.32090 36.92548 0 ft 131 kts 53°
2026-05-07 14:57 -1.31747 36.93002 0 ft 162 kts 52°
2026-05-07 14:57 -1.31365 36.93495 0 ft 188 kts 52°
2026-05-07 14:57 -1.30928 36.94060 0 ft 192 kts 52°
2026-05-07 14:57 -1.30582 36.94506 0 ft 185 kts 52°
2026-05-07 14:58 -1.30447 36.94679 0 ft 182 kts 52°
2026-05-07 14:58 -1.30049 36.95186 0 ft 191 kts 51°
2026-05-07 14:58 -1.29479 36.95686 0 ft 218 kts 27°
2026-05-07 14:58 -1.28790 36.95914 0 ft 217 kts
2026-05-07 14:59 -1.28462 36.95932 0 ft 216 kts 357°
2026-05-07 15:00 -1.27482 36.95642 0 ft 218 kts 327°
2026-05-07 15:00 -1.26767 36.94918 0 ft 228 kts 299°
2026-05-07 15:00 -1.26457 36.93861 0 ft 242 kts 271°
2026-05-07 15:00 -1.26697 36.92612 0 ft 264 kts 243°
2026-05-07 15:01 -1.27436 36.91600 0 ft 287 kts 220°
2026-05-07 15:01 -1.28641 36.90865 0 ft 312 kts 202°
2026-05-07 15:01 -1.30309 36.90248 0 ft 341 kts 200°
2026-05-07 15:01 -1.31969 36.89549 0 ft 364 kts 206°
2026-05-07 15:02 -1.33620 36.88627 0 ft 385 kts 212°
2026-05-07 15:02 -1.35153 36.87460 0 ft 400 kts 225°
2026-05-07 15:02 -1.36346 36.85708 0 ft 383 kts 244°
2026-05-07 15:02 -1.36930 36.83716 0 ft 385 kts 262°
2026-05-07 15:03 -1.36898 36.81703 0 ft 399 kts 279°
2026-05-07 15:03 -1.36340 36.79621 0 ft 381 kts 288°
2026-05-07 15:03 -1.35656 36.77715 0 ft 368 kts 290°
2026-05-07 15:03 -1.34905 36.75812 0 ft 372 kts 291°
2026-05-07 15:04 -1.34090 36.73832 0 ft 376 kts 292°
2026-05-07 15:04 -1.33280 36.71901 0 ft 377 kts 292°
2026-05-07 15:04 -1.32467 36.69979 0 ft 377 kts 292°
2026-05-07 15:04 -1.31627 36.67999 0 ft 377 kts 292°
2026-05-07 15:05 -1.30843 36.66145 0 ft 377 kts 292°
2026-05-07 15:05 -1.30038 36.64235 0 ft 377 kts 292°
2026-05-07 15:05 -1.29214 36.62274 0 ft 377 kts 292°
2026-05-07 15:05 -1.28412 36.60357 0 ft 377 kts 292°
2026-05-07 15:06 -1.27632 36.58486 0 ft 379 kts 292°
2026-05-07 15:06 -1.26836 36.56570 0 ft 381 kts 292°
2026-05-07 15:06 -1.25996 36.54541 0 ft 380 kts 292°
2026-05-07 15:06 -1.25159 36.52515 0 ft 379 kts 292°
2026-05-07 15:07 -1.24371 36.50602 0 ft 379 kts 292°
2026-05-07 15:07 -1.23563 36.48639 0 ft 380 kts 292°
2026-05-07 15:07 -1.22716 36.46580 0 ft 380 kts 292°
2026-05-07 15:07 -1.21896 36.44584 0 ft 380 kts 292°
2026-05-07 15:08 -1.21095 36.42633 0 ft 379 kts 292°
2026-05-07 15:08 -1.20251 36.40573 0 ft 379 kts 292°
2026-05-07 15:08 -1.19407 36.38515 0 ft 379 kts 292°
2026-05-07 15:08 -1.18603 36.36551 0 ft 380 kts 292°
2026-05-07 15:09 -1.17737 36.34439 0 ft 380 kts 292°
2026-05-07 15:09 -1.16895 36.32385 0 ft 379 kts 292°
2026-05-07 15:09 -1.16052 36.30327 0 ft 379 kts 292°
2026-05-07 15:09 -1.15258 36.28388 0 ft 381 kts 292°
2026-05-07 15:10 -1.14436 36.26379 0 ft 382 kts 292°
2026-05-07 15:10 -1.13633 36.24419 0 ft 384 kts 292°
2026-05-07 15:10 -1.12779 36.22336 0 ft 387 kts 292°
2026-05-07 15:10 -1.11885 36.20155 0 ft 390 kts 292°
2026-05-07 15:11 -1.10973 36.17908 0 ft 393 kts 290°
2026-05-07 15:11 -1.10432 36.15634 0 ft 395 kts 278°
2026-05-07 15:11 -1.10138 36.13199 0 ft 398 kts 275°
2026-05-07 15:11 -1.09948 36.10927 0 ft 400 kts 274°
2026-05-07 15:12 -1.09791 36.08488 0 ft 402 kts 273°
2026-05-07 15:12 -1.09666 36.06108 0 ft 404 kts 272°
2026-05-07 15:12 -1.09561 36.03734 0 ft 406 kts 272°
2026-05-07 15:12 -1.09464 36.01255 0 ft 408 kts 272°
2026-05-07 15:13 -1.09373 35.98706 0 ft 410 kts 271°
2026-05-07 15:13 -1.09292 35.96276 0 ft 412 kts 271°
2026-05-07 15:13 -1.09220 35.93988 0 ft 414 kts 271°
2026-05-07 15:13 -1.09146 35.91550 0 ft 416 kts 271°
2026-05-07 15:14 -1.09072 35.89029 0 ft 417 kts 271°
2026-05-07 15:14 -1.09001 35.86574 0 ft 419 kts 271°
2026-05-07 15:14 -1.08929 35.84011 0 ft 421 kts 271°
2026-05-07 15:14 -1.08856 35.81417 0 ft 423 kts 271°
2026-05-07 15:15 -1.08787 35.78909 0 ft 425 kts 271°
2026-05-07 15:15 -1.08718 35.76351 0 ft 427 kts 271°
2026-05-07 15:15 -1.08652 35.73914 0 ft 428 kts 271°
2026-05-07 15:15 -1.08582 35.71316 0 ft 430 kts 271°
2026-05-07 15:16 -1.08511 35.68668 0 ft 432 kts 271°
2026-05-07 15:16 -1.08441 35.66051 0 ft 434 kts 271°
2026-05-07 15:16 -1.08371 35.63423 0 ft 435 kts 271°
2026-05-07 15:16 -1.08300 35.60783 0 ft 437 kts 271°
2026-05-07 15:17 -1.08232 35.58215 0 ft 439 kts 271°
2026-05-07 15:17 -1.08165 35.55658 0 ft 440 kts 271°
2026-05-07 15:17 -1.08094 35.52956 0 ft 442 kts 271°
2026-05-07 15:17 -1.08023 35.50258 0 ft 443 kts 271°
2026-05-07 15:18 -1.07957 35.47734 0 ft 445 kts 271°
2026-05-07 15:18 -1.07889 35.45141 0 ft 446 kts 271°
2026-05-07 15:18 -1.07818 35.42456 0 ft 448 kts 271°
2026-05-07 15:18 -1.07749 35.39770 0 ft 449 kts 271°
2026-05-07 15:19 -1.07675 35.36958 0 ft 451 kts 271°
2026-05-07 15:19 -1.07600 35.34079 0 ft 452 kts 271°
2026-05-07 15:19 -1.07529 35.31329 0 ft 441 kts 271°
2026-05-07 15:19 -1.07458 35.28658 0 ft 407 kts 271°
2026-05-07 15:20 -1.07391 35.26105 0 ft 403 kts 271°
2026-05-07 15:20 -1.07328 35.23748 0 ft 408 kts 271°
2026-05-07 15:20 -1.07267 35.21458 0 ft 414 kts 271°
2026-05-07 15:20 -1.07200 35.18922 0 ft 417 kts 271°
2026-05-07 15:21 -1.07137 35.16532 0 ft 416 kts 271°
2026-05-07 15:21 -1.07067 35.13881 0 ft 414 kts 271°
2026-05-07 15:21 -1.06999 35.11305 0 ft 413 kts 271°
2026-05-07 15:21 -1.06929 35.08640 0 ft 413 kts 271°
2026-05-07 15:22 -1.06862 35.06065 0 ft 414 kts 271°
2026-05-07 15:22 -1.06799 35.03690 0 ft 414 kts 271°
2026-05-07 15:22 -1.06739 35.01374 0 ft 414 kts 271°
2026-05-07 15:22 -1.06678 34.99059 0 ft 414 kts 271°
2026-05-07 15:23 -1.06616 34.96688 0 ft 413 kts 271°
2026-05-07 15:23 -1.06555 34.94340 0 ft 413 kts 271°
2026-05-07 15:23 -1.06492 34.91972 0 ft 413 kts 271°
2026-05-07 15:23 -1.06430 34.89602 0 ft 414 kts 271°
2026-05-07 15:24 -1.06377 34.87568 0 ft 414 kts 271°
2026-05-07 15:24 -1.06316 34.85251 0 ft 414 kts 271°
2026-05-07 15:24 -1.06255 34.82917 0 ft 414 kts 271°
2026-05-07 15:24 -1.06193 34.80548 0 ft 413 kts 271°
2026-05-07 15:25 -1.06134 34.78292 0 ft 413 kts 271°
2026-05-07 15:25 -1.06070 34.75832 0 ft 414 kts 271°
2026-05-07 15:25 -1.06003 34.73290 0 ft 414 kts 271°
2026-05-07 15:25 -1.05941 34.70749 0 ft 414 kts 270°
2026-05-07 15:26 -1.06253 34.68403 0 ft 413 kts 251°
2026-05-07 15:26 -1.07394 34.66198 0 ft 413 kts 231°
2026-05-07 15:26 -1.09222 34.64541 0 ft 413 kts 211°
2026-05-07 15:26 -1.11402 34.63638 0 ft 414 kts 192°
2026-05-07 15:27 -1.13862 34.63508 0 ft 415 kts 172°
2026-05-07 15:27 -1.15946 34.64090 0 ft 415 kts 155°
2026-05-07 15:27 -1.18076 34.65196 0 ft 415 kts 156°
2026-05-07 15:27 -1.20376 34.65816 0 ft 414 kts 176°
2026-05-07 15:28 -1.22852 34.65595 0 ft 413 kts 197°
2026-05-07 15:28 -1.25126 34.64496 0 ft 413 kts 217°
2026-05-07 15:28 -1.26793 34.62776 0 ft 414 kts 237°
2026-05-07 15:28 -1.27790 34.60596 0 ft 414 kts 256°
2026-05-07 15:29 -1.28127 34.58147 0 ft 414 kts 266°
2026-05-07 15:29 -1.28227 34.55698 0 ft 414 kts 269°
2026-05-07 15:29 -1.28260 34.53181 0 ft 413 kts 269°
2026-05-07 15:29 -1.28169 34.50654 0 ft 413 kts 276°
2026-05-07 15:30 -1.27814 34.48201 0 ft 414 kts 279°
2026-05-07 15:30 -1.27369 34.45750 0 ft 414 kts 281°
2026-05-07 15:30 -1.26899 34.43347 0 ft 415 kts 281°
2026-05-07 15:30 -1.26405 34.40907 0 ft 414 kts 281°
2026-05-07 15:31 -1.25904 34.38469 0 ft 414 kts 281°
2026-05-07 15:31 -1.25403 34.36057 0 ft 414 kts 281°
2026-05-07 15:31 -1.25056 34.34392 0 ft 414 kts 281°
2026-05-07 15:31 -1.24360 34.31060 0 ft 414 kts 281°
2026-05-07 15:32 -1.23844 34.28594 0 ft 414 kts 281°
2026-05-07 15:32 -1.23339 34.26177 0 ft 415 kts 281°
2026-05-07 15:32 -1.22813 34.23665 0 ft 414 kts 281°
2026-05-07 15:32 -1.22293 34.21178 0 ft 414 kts 281°
2026-05-07 15:33 -1.21762 34.18642 0 ft 414 kts 281°
2026-05-07 15:33 -1.21415 34.16983 0 ft 414 kts 281°
2026-05-07 15:33 -1.20887 34.14457 0 ft 414 kts 281°
2026-05-07 15:33 -1.20175 34.11054 0 ft 415 kts 281°
2026-05-07 15:34 -1.19805 34.09282 0 ft 415 kts 281°
2026-05-07 15:34 -1.19280 34.06771 0 ft 414 kts 281°
2026-05-07 15:34 -1.18763 34.04297 0 ft 414 kts 281°
2026-05-07 15:34 -1.18059 34.00930 0 ft 414 kts 281°
2026-05-07 15:35 -1.17715 33.99284 0 ft 414 kts 281°
2026-05-07 15:35 -1.17230 33.96960 0 ft 414 kts 281°
2026-05-07 15:35 -1.16702 33.94431 0 ft 415 kts 281°
2026-05-07 15:35 -1.16167 33.91870 0 ft 414 kts 281°
2026-05-07 15:36 -1.15469 33.88527 0 ft 414 kts 281°
2026-05-07 15:36 -1.15113 33.86823 0 ft 414 kts 281°
2026-05-07 15:36 -1.14586 33.84296 0 ft 414 kts 281°
2026-05-07 15:36 -1.14047 33.81715 0 ft 414 kts 281°
2026-05-07 15:37 -1.13516 33.79170 0 ft 414 kts 281°
2026-05-07 15:37 -1.12977 33.76587 0 ft 415 kts 281°
2026-05-07 15:37 -1.12445 33.74038 0 ft 414 kts 281°
2026-05-07 15:37 -1.11925 33.71546 0 ft 414 kts 281°
2026-05-07 15:38 -1.11398 33.69018 0 ft 414 kts 281°
2026-05-07 15:38 -1.10871 33.66492 0 ft 414 kts 281°
2026-05-07 15:38 -1.10337 33.63927 0 ft 414 kts 281°
2026-05-07 15:38 -1.09797 33.61341 0 ft 415 kts 281°
2026-05-07 15:39 -1.09274 33.58830 0 ft 414 kts 281°
2026-05-07 15:39 -1.08740 33.56244 0 ft 414 kts 281°
2026-05-07 15:39 -1.08276 33.53563 0 ft 414 kts 278°
2026-05-07 15:39 -1.07902 33.50962 0 ft 414 kts 277°
2026-05-07 15:40 -1.07569 33.48348 0 ft 414 kts 276°
2026-05-07 15:40 -1.07269 33.45744 0 ft 415 kts 276°
2026-05-07 15:40 -1.07007 33.43295 0 ft 412 kts 275°
2026-05-07 15:40 -1.06765 33.40884 0 ft 408 kts 275°
2026-05-07 15:41 -1.06542 33.38550 0 ft 404 kts 275°
2026-05-07 15:41 -1.06331 33.36239 0 ft 399 kts 275°
2026-05-07 15:41 -1.06118 33.33824 0 ft 392 kts 275°
2026-05-07 15:41 -1.05911 33.31399 0 ft 377 kts 274°
2026-05-07 15:42 -1.05721 33.29107 0 ft 364 kts 274°
2026-05-07 15:42 -1.05535 33.26818 0 ft 351 kts 274°
2026-05-07 15:42 -1.05367 33.24718 0 ft 340 kts 274°
2026-05-07 15:42 -1.05203 33.22638 0 ft 330 kts 274°
2026-05-07 15:43 -1.05046 33.20600 0 ft 323 kts 274°
2026-05-07 15:43 -1.04893 33.18600 0 ft 321 kts 274°
2026-05-07 15:43 -1.04741 33.16586 0 ft 319 kts 274°
2026-05-07 15:43 -1.04597 33.14657 0 ft 316 kts 274°
2026-05-07 15:44 -1.04453 33.12727 0 ft 314 kts 274°
2026-05-07 15:44 -1.04317 33.10877 0 ft 312 kts 274°
2026-05-07 15:44 -1.04179 33.09003 0 ft 310 kts 274°
2026-05-07 15:44 -1.04043 33.07142 0 ft 308 kts 274°
2026-05-07 15:45 -1.03907 33.05278 0 ft 305 kts 274°
2026-05-07 15:45 -1.03772 33.03424 0 ft 297 kts 274°
2026-05-07 15:45 -1.03642 33.01640 0 ft 285 kts 274°
2026-05-07 15:45 -1.03515 32.99897 0 ft 274 kts 274°
2026-05-07 15:46 -1.03269 32.96519 0 ft 260 kts 274°
2026-05-07 15:46 -1.03147 32.94834 0 ft 258 kts 274°
2026-05-07 15:46 -1.03027 32.93174 0 ft 258 kts 274°
2026-05-07 15:47 -1.02905 32.91486 0 ft 258 kts 274°
2026-05-07 15:47 -1.02790 32.89896 0 ft 258 kts 274°
2026-05-07 15:47 -1.02668 32.88215 0 ft 257 kts 274°
2026-05-07 15:47 -1.02548 32.86553 0 ft 257 kts 274°
2026-05-07 15:48 -1.02426 32.84870 0 ft 258 kts 274°
2026-05-07 15:48 -1.02300 32.83140 0 ft 272 kts 274°
2026-05-07 15:48 -1.02167 32.81299 0 ft 292 kts 274°
2026-05-07 15:48 -1.02036 32.79493 0 ft 293 kts 274°
2026-05-07 15:49 -1.01893 32.77519 0 ft 306 kts 274°
2026-05-07 15:49 -1.01741 32.75443 0 ft 315 kts 274°
2026-05-07 15:49 -1.01589 32.73352 0 ft 311 kts 274°
2026-05-07 15:49 -1.01439 32.71305 0 ft 310 kts 274°
2026-05-07 15:50 -1.01287 32.69229 0 ft 311 kts 274°
2026-05-07 15:50 -1.01135 32.67153 0 ft 311 kts 274°
2026-05-07 15:50 -1.00985 32.65097 0 ft 310 kts 274°
2026-05-07 15:50 -1.00841 32.63114 0 ft 310 kts 274°
2026-05-07 15:51 -1.00702 32.61211 0 ft 311 kts 274°
2026-05-07 15:51 -1.00541 32.59150 0 ft 309 kts 277°
2026-05-07 15:51 -0.99902 32.57316 0 ft 307 kts 301°
2026-05-07 15:51 -0.98700 32.55674 0 ft 306 kts 309°
2026-05-07 15:52 -0.97368 32.54166 0 ft 308 kts 313°
2026-05-07 15:52 -0.95947 32.52715 0 ft 301 kts 315°
2026-05-07 15:52 -0.94500 32.51342 0 ft 289 kts 317°
2026-05-07 15:52 -0.93242 32.50205 0 ft 276 kts 318°
2026-05-07 15:53 -0.91930 32.49057 0 ft 280 kts 319°
2026-05-07 15:53 -0.90600 32.47929 0 ft 282 kts 319°
2026-05-07 15:53 -0.89275 32.46832 0 ft 282 kts 320°
2026-05-07 15:53 -0.87888 32.45706 0 ft 282 kts 321°
2026-05-07 15:54 -0.86441 32.44549 0 ft 282 kts 321°
2026-05-07 15:54 -0.84999 32.43409 0 ft 281 kts 321°
2026-05-07 15:54 -0.83615 32.42323 0 ft 269 kts 321°
2026-05-07 15:54 -0.82237 32.41248 0 ft 270 kts 321°
2026-05-07 15:55 -0.80795 32.40124 0 ft 289 kts 321°
2026-05-07 15:55 -0.79266 32.38934 0 ft 298 kts 321°
2026-05-07 15:55 -0.77839 32.37826 0 ft 293 kts 321°
2026-05-07 15:55 -0.76310 32.36640 0 ft 293 kts 321°
2026-05-07 15:56 -0.74920 32.35562 0 ft 294 kts 321°
2026-05-07 15:56 -0.73478 32.34444 0 ft 293 kts 322°
2026-05-07 15:56 -0.72051 32.33338 0 ft 292 kts 321°
2026-05-07 15:56 -0.70612 32.32221 0 ft 293 kts 321°
2026-05-07 15:57 -0.69133 32.31074 0 ft 294 kts 321°
2026-05-07 15:57 -0.67698 32.29959 0 ft 293 kts 321°
2026-05-07 15:57 -0.66266 32.28847 0 ft 293 kts 321°
2026-05-07 15:57 -0.64823 32.27726 0 ft 294 kts 321°
2026-05-07 15:58 -0.63367 32.26595 0 ft 293 kts 323°
2026-05-07 15:58 -0.61815 32.25728 0 ft 293 kts 337°
2026-05-07 15:58 -0.60146 32.25118 0 ft 295 kts 342°
2026-05-07 15:58 -0.58372 32.24596 0 ft 292 kts 345°
2026-05-07 15:59 -0.56621 32.24159 0 ft 291 kts 346°
2026-05-07 15:59 -0.54969 32.23797 0 ft 289 kts 348°
2026-05-07 15:59 -0.53415 32.23490 0 ft 287 kts 349°
2026-05-07 15:59 -0.51955 32.23224 0 ft 285 kts 349°
2026-05-07 16:00 -0.50394 32.22958 0 ft 286 kts 350°
2026-05-07 16:00 -0.48781 32.22698 0 ft 286 kts 351°
2026-05-07 16:00 -0.47091 32.22438 0 ft 280 kts 351°
2026-05-07 16:00 -0.45378 32.22183 0 ft 269 kts 351°
2026-05-07 16:01 -0.43733 32.21945 0 ft 251 kts 351°
2026-05-07 16:01 -0.42227 32.21730 0 ft 234 kts 351°
2026-05-07 16:01 -0.40847 32.21534 0 ft 235 kts 351°
2026-05-07 16:01 -0.39411 32.21331 0 ft 236 kts 351°
2026-05-07 16:02 -0.37957 32.21126 0 ft 235 kts 351°
2026-05-07 16:02 -0.36588 32.20934 0 ft 235 kts 351°
2026-05-07 16:02 -0.35198 32.20739 0 ft 235 kts 351°
2026-05-07 16:02 -0.33742 32.20535 0 ft 236 kts 351°
2026-05-07 16:03 -0.32274 32.20330 0 ft 235 kts 351°
2026-05-07 16:03 -0.30811 32.20126 0 ft 235 kts 351°
2026-05-07 16:03 -0.29346 32.19920 0 ft 235 kts 351°
2026-05-07 16:03 -0.27988 32.19731 0 ft 235 kts 352°
2026-05-07 16:04 -0.26575 32.19534 0 ft 235 kts 352°
2026-05-07 16:04 -0.25173 32.19339 0 ft 236 kts 351°
2026-05-07 16:04 -0.23814 32.19149 0 ft 236 kts 351°
2026-05-07 16:04 -0.22446 32.18957 0 ft 235 kts 351°
2026-05-07 16:05 -0.20998 32.18754 0 ft 235 kts 351°
2026-05-07 16:05 -0.19596 32.18558 0 ft 235 kts 351°
2026-05-07 16:05 -0.18107 32.18351 0 ft 236 kts 352°
2026-05-07 16:05 -0.16740 32.18162 0 ft 236 kts 352°
2026-05-07 16:06 -0.15327 32.17967 0 ft 235 kts 352°
2026-05-07 16:06 -0.13973 32.17780 0 ft 235 kts 352°
2026-05-07 16:06 -0.12560 32.17585 0 ft 235 kts 352°
2026-05-07 16:06 -0.11132 32.17387 0 ft 254 kts 352°
2026-05-07 16:07 -0.09569 32.17170 0 ft 264 kts 352°
2026-05-07 16:07 -0.07924 32.16942 0 ft 261 kts 352°
2026-05-07 16:07 -0.06321 32.16720 0 ft 260 kts 352°
2026-05-07 16:07 -0.04715 32.16497 0 ft 260 kts 352°
2026-05-07 16:08 -0.03156 32.16280 0 ft 260 kts 352°
2026-05-07 16:08 -0.01647 32.16070 0 ft 259 kts 352°
2026-05-07 16:08 -0.00068 32.15851 0 ft 259 kts 352°
2026-05-07 16:08 0.01483 32.15635 0 ft 260 kts 352°
2026-05-07 16:09 0.03015 32.15422 0 ft 259 kts 352°
2026-05-07 16:09 0.04522 32.15212 0 ft 259 kts 352°
2026-05-07 16:09 0.06030 32.15002 0 ft 260 kts 352°
2026-05-07 16:09 0.07553 32.14790 0 ft 260 kts 352°
2026-05-07 16:10 0.09072 32.14578 0 ft 259 kts 352°
2026-05-07 16:10 0.10626 32.14362 0 ft 259 kts 352°
2026-05-07 16:10 0.12126 32.14153 0 ft 260 kts 352°
2026-05-07 16:10 0.13684 32.13936 0 ft 259 kts 352°
2026-05-07 16:11 0.15260 32.13717 0 ft 259 kts 352°
2026-05-07 16:11 0.16792 32.13504 0 ft 260 kts 352°
2026-05-07 16:11 0.18304 32.13294 0 ft 260 kts 352°
2026-05-07 16:11 0.19869 32.13225 0 ft 260 kts
2026-05-07 16:12 0.21402 32.13404 0 ft 259 kts
2026-05-07 16:12 0.21921 32.13493 0 ft 258 kts 10°
2026-05-07 16:13 0.26686 32.14664 0 ft 254 kts 16°
2026-05-07 16:13 0.28025 32.15064 0 ft 255 kts 17°
2026-05-07 16:13 0.29399 32.15492 0 ft 253 kts 17°
2026-05-07 16:13 0.30843 32.15956 0 ft 249 kts 18°
2026-05-07 16:14 0.32148 32.16384 0 ft 250 kts 18°
2026-05-07 16:14 0.33500 32.16831 0 ft 251 kts 18°
2026-05-07 16:14 0.34855 32.17284 0 ft 251 kts 18°
2026-05-07 16:14 0.36278 32.17759 0 ft 251 kts 18°
2026-05-07 16:15 0.37757 32.18254 0 ft 253 kts 18°
2026-05-07 16:15 0.39269 32.18760 0 ft 253 kts 18°
2026-05-07 16:15 0.40807 32.19274 0 ft 274 kts 18°
2026-05-07 16:15 0.42473 32.19830 0 ft 288 kts 18°
2026-05-07 16:16 0.44177 32.20397 0 ft 295 kts 18°
2026-05-07 16:16 0.45774 32.20954 0 ft 294 kts 21°
2026-05-07 16:16 0.47204 32.21586 0 ft 294 kts 29°
2026-05-07 16:16 0.48696 32.22574 0 ft 294 kts 38°
2026-05-07 16:17 0.49978 32.23727 0 ft 294 kts 47°
2026-05-07 16:17 0.51050 32.25041 0 ft 294 kts 56°
2026-05-07 16:17 0.51818 32.26413 0 ft 293 kts 67°
2026-05-07 16:17 0.52360 32.27984 0 ft 293 kts 78°
2026-05-07 16:18 0.52557 32.29403 0 ft 293 kts 88°
2026-05-07 16:18 0.52511 32.30942 0 ft 292 kts 98°
2026-05-07 16:18 0.52161 32.32449 0 ft 289 kts 109°
2026-05-07 16:18 0.51539 32.33903 0 ft 288 kts 121°
2026-05-07 16:19 0.50631 32.35187 0 ft 285 kts 131°
2026-05-07 16:19 0.49508 32.36247 0 ft 284 kts 150°
2026-05-07 16:19 0.48046 32.36922 0 ft 274 kts 161°
2026-05-07 16:19 0.46556 32.37407 0 ft 260 kts 165°
2026-05-07 16:20 0.45136 32.37787 0 ft 245 kts 167°
2026-05-07 16:20 0.43732 32.38112 0 ft 230 kts 168°
2026-05-07 16:20 0.42565 32.38350 0 ft 224 kts 170°
2026-05-07 16:20 0.41260 32.38590 0 ft 223 kts 171°
2026-05-07 16:21 0.39936 32.38811 0 ft 224 kts 172°
2026-05-07 16:21 0.38631 32.39013 0 ft 223 kts 172°
2026-05-07 16:21 0.37419 32.39192 0 ft 223 kts 172°
2026-05-07 16:21 0.36076 32.39382 0 ft 225 kts 173°
2026-05-07 16:22 0.34725 32.39569 0 ft 218 kts 173°
2026-05-07 16:22 0.33486 32.39739 0 ft 198 kts 173°
2026-05-07 16:22 0.32365 32.39894 0 ft 174 kts 173°
2026-05-07 16:22 0.31322 32.40038 0 ft 170 kts 173°
2026-05-07 16:23 0.30267 32.40184 0 ft 174 kts 173°
2026-05-07 16:23 0.29210 32.40330 0 ft 175 kts 173°
2026-05-07 16:23 0.28200 32.40470 0 ft 175 kts 173°
2026-05-07 16:23 0.27175 32.40614 0 ft 175 kts 173°
2026-05-07 16:24 0.26114 32.40762 0 ft 179 kts 173°
2026-05-07 16:24 0.25204 32.40888 0 ft 174 kts 173°
2026-05-07 16:24 0.24261 32.41019 0 ft 170 kts 173°
2026-05-07 16:24 0.23326 32.41149 0 ft 170 kts 173°
2026-05-07 16:25 0.22421 32.41274 0 ft 167 kts 173°
2026-05-07 16:25 0.21506 32.41402 0 ft 161 kts 173°
2026-05-07 16:25 0.20609 32.41527 0 ft 150 kts 173°
2026-05-07 16:25 0.19803 32.41640 0 ft 151 kts 173°
2026-05-07 16:26 0.19017 32.41754 0 ft 152 kts 173°
2026-05-07 16:26 0.18134 32.41882 0 ft 152 kts 173°
2026-05-07 16:26 0.17292 32.42001 0 ft 152 kts 173°
2026-05-07 16:26 0.16715 32.42082 0 ft 152 kts 173°
2026-05-07 16:27 0.15550 32.42240 0 ft 153 kts 173°
2026-05-07 16:27 0.14643 32.42364 0 ft 155 kts 173°
2026-05-07 16:27 0.13781 32.42481 0 ft 152 kts 173°
2026-05-07 16:27 0.12884 32.42604 0 ft 152 kts 173°
2026-05-07 16:28 0.12600 32.42643 0 ft 152 kts 173°
2026-05-07 16:28 0.09996 32.43005 0 ft 150 kts 173°
2026-05-07 16:29 0.09264 32.43107 0 ft 150 kts 173°
2026-05-07 16:29 0.08683 32.43187 0 ft 150 kts 173°
2026-05-07 16:29 0.08101 32.43268 0 ft 144 kts 173°
2026-05-07 16:29 0.07576 32.43341 0 ft 145 kts 173°
2026-05-07 16:30 0.07152 32.43400 0 ft 148 kts 173°
2026-05-07 16:30 0.06768 32.43454 0 ft 147 kts 173°
2026-05-07 16:30 0.06332 32.43514 0 ft 146 kts 173°
2026-05-07 16:30 0.05827 32.43585 0 ft 145 kts 173°
2026-05-07 16:31 0.05245 32.43664 0 ft 137 kts 174°
2026-05-07 16:31 0.04649 32.43728 0 ft 146 kts 174°
2026-05-07 16:31 0.04126 32.43795 0 ft 144 kts 173°
2026-05-07 16:31 0.03623 32.43881 0 ft 140 kts 171°
2026-05-07 16:32 0.03559 32.43889 0 ft 0 kts 172°